Clinton, IA

2:52 PM CST on November 22, 2017 (GMT -0600)
Clinton Municipal

Weather History for KCWI - October, 2014

Change the Weather History Date:

Wednesday, October 29, 2014

  Actual Average Record
Temperature  
Mean Temperature 39 °F -  
Max Temperature 48 °F 58 °F 80 °F (2004)
Min Temperature 30 °F 37 °F 17 °F (1952)
Degree Days  
Heating Degree Days 26    
Moisture  
Dew Point 29 °F    
Average Humidity 60    
Maximum Humidity 86    
Minimum Humidity 46    
Precipitation  
Precipitation 0.00 in - - ()
Sea Level Pressure  
Sea Level Pressure 30.12 in    
Wind  
Wind Speed 10 mph (NW)    
Max Wind Speed 20 mph    
Max Gust Speed 28 mph    
Visibility 10 miles    
Events      
Averages and records for this station are not official NWS values.
T = Trace of Precipitation, MM = Missing Value Source: NWS Daily Summary

Daily Weather History Graph

Daily Weather History Graph

Search for Another Location

Airport or City:

Trip Planner

Search our weather history database for the weather conditions in past years. The results will help you decide how hot, cold, wet, or windy it might be!

Date:

Astronomy

Oct. 29, 2014 Rise Set
Actual Time 7:30 AM CDT 5:59 PM CDT
Civil Twilight 7:01 AM CDT 6:28 PM CDT
Nautical Twilight 6:28 AM CDT 7:00 PM CDT
Astronomical Twilight 5:56 AM CDT 7:33 PM CDT
Moon 12:50 PM CDT (10/29) 11:08 PM CDT (10/29)
Length of Visible Light 11h 26m
Length of Day
10h 29m
Waxing Crescent, 34% of the Moon is Illuminated
Oct 29
Waxing Crescent
Oct 30
First Quarter
Nov 6
Full
Nov 14
Last Quarter
Nov 22
New

Hourly Weather History & Observations

Time (CDT) Temp. Windchill Dew Point Humidity Pressure Visibility Wind Dir Wind Speed Gust Speed Precip Events Conditions
12:15 AM 46.4 °F 39.8 °F 30.2 °F 53% 30.03 in 10.0 mi WNW 16.1 mph 26.5 mph N/A   Overcast
12:35 AM 46.4 °F 40.4 °F 30.2 °F 53% 30.03 in 10.0 mi WNW 13.8 mph 21.9 mph N/A   Overcast
12:55 AM 46.4 °F 39.8 °F 30.2 °F 53% 30.04 in 10.0 mi WNW 16.1 mph 27.6 mph N/A   Overcast
1:15 AM 46.4 °F 40.1 °F 30.2 °F 53% 30.04 in 10.0 mi WNW 15.0 mph 24.2 mph N/A   Overcast
1:35 AM 46.4 °F 41.1 °F 30.2 °F 53% 30.04 in 10.0 mi WNW 11.5 mph 20.7 mph N/A   Overcast
1:55 AM 46.4 °F 41.1 °F 30.2 °F 53% 30.04 in 10.0 mi WNW 11.5 mph - N/A   Overcast
2:15 AM 46.4 °F 41.5 °F 30.2 °F 53% 30.04 in 10.0 mi WNW 10.4 mph - N/A   Overcast
2:35 AM 46.4 °F 40.4 °F 30.2 °F 53% 30.04 in 10.0 mi WNW 13.8 mph 19.6 mph N/A   Overcast
2:55 AM 46.4 °F 39.8 °F 30.2 °F 53% 30.05 in 10.0 mi WNW 16.1 mph 21.9 mph N/A   Overcast
3:15 AM 44.6 °F 39.7 °F 30.2 °F 57% 30.05 in 10.0 mi WNW 9.2 mph 18.4 mph N/A   Overcast
3:35 AM 44.6 °F 36.6 °F 30.2 °F 57% 30.05 in 10.0 mi NW 19.6 mph 26.5 mph N/A   Overcast
3:55 AM 44.6 °F 37.4 °F 28.4 °F 53% 30.05 in 10.0 mi WNW 16.1 mph 24.2 mph N/A   Overcast
4:15 AM 44.6 °F 37.4 °F 28.4 °F 53% 30.06 in 10.0 mi WNW 16.1 mph 24.2 mph N/A   Mostly Cloudy
4:35 AM 42.8 °F 37.0 °F 28.4 °F 57% 30.07 in 10.0 mi WNW 10.4 mph - N/A   Partly Cloudy
4:55 AM 41.0 °F 35.8 °F 26.6 °F 57% 30.07 in 10.0 mi WNW 8.1 mph - N/A   Clear
5:15 AM 39.2 °F 33.6 °F 28.4 °F 65% 30.07 in 10.0 mi WNW 8.1 mph - N/A   Partly Cloudy
5:35 AM 39.2 °F 33.6 °F 28.4 °F 65% 30.08 in 10.0 mi WNW 8.1 mph - N/A   Partly Cloudy
5:55 AM 37.4 °F 32.1 °F 28.4 °F 70% 30.08 in 10.0 mi WNW 6.9 mph - N/A   Mostly Cloudy
6:15 AM 39.2 °F 33.0 °F 28.4 °F 65% 30.09 in 10.0 mi WNW 9.2 mph - N/A   Overcast
6:35 AM 41.0 °F 36.4 °F 28.4 °F 61% 30.09 in 10.0 mi West 6.9 mph - N/A   Overcast
6:55 AM 41.0 °F 35.2 °F 28.4 °F 61% 30.09 in 10.0 mi WNW 9.2 mph - N/A   Overcast
7:15 AM 41.0 °F 36.4 °F 30.2 °F 65% 30.10 in 10.0 mi WNW 6.9 mph - N/A   Overcast
7:35 AM 42.8 °F 37.5 °F 30.2 °F 61% 30.10 in 10.0 mi NW 9.2 mph - N/A   Overcast
7:55 AM 42.8 °F 38.0 °F 30.2 °F 61% 30.11 in 10.0 mi WNW 8.1 mph 18.4 mph N/A   Overcast
8:15 AM 41.0 °F 36.4 °F 30.2 °F 65% 30.11 in 10.0 mi WNW 6.9 mph - N/A   Mostly Cloudy
8:35 AM 42.8 °F 38.0 °F 30.2 °F 61% 30.12 in 10.0 mi WNW 8.1 mph - N/A   Scattered Clouds
8:55 AM 44.6 °F 38.8 °F 30.2 °F 57% 30.13 in 10.0 mi NW 11.5 mph - N/A   Clear
9:15 AM 42.8 °F 35.8 °F 28.4 °F 57% 30.13 in 10.0 mi NW 13.8 mph 19.6 mph N/A   Mostly Cloudy
9:35 AM 42.8 °F 36.2 °F 28.4 °F 57% 30.14 in 10.0 mi NNW 12.7 mph 20.7 mph N/A   Mostly Cloudy
9:55 AM 44.6 °F 38.1 °F 30.2 °F 57% 30.15 in 10.0 mi NW 13.8 mph 18.4 mph N/A   Partly Cloudy
10:15 AM 44.6 °F 39.2 °F 30.2 °F 57% 30.15 in 10.0 mi NW 10.4 mph 17.3 mph N/A   Partly Cloudy
10:35 AM 44.6 °F 38.1 °F 30.2 °F 57% 30.15 in 10.0 mi NNW 13.8 mph - N/A   Mostly Cloudy
10:55 AM 46.4 °F 41.9 °F 30.2 °F 53% 30.16 in 10.0 mi NW 9.2 mph 17.3 mph N/A   Overcast
11:15 AM 46.4 °F 41.5 °F 30.2 °F 53% 30.16 in 10.0 mi NW 10.4 mph - N/A   Mostly Cloudy
11:35 AM 46.4 °F 40.7 °F 30.2 °F 53% 30.16 in 10.0 mi NNW 12.7 mph - N/A   Mostly Cloudy
11:55 AM 46.4 °F 42.9 °F 30.2 °F 53% 30.16 in 10.0 mi WNW 6.9 mph - N/A   Partly Cloudy
12:15 PM 48.2 °F - 30.2 °F 50% 30.16 in 10.0 mi NNW 13.8 mph - N/A   Mostly Cloudy
12:35 PM 46.4 °F 41.9 °F 30.2 °F 53% 30.16 in 10.0 mi NNW 9.2 mph 16.1 mph N/A   Overcast
12:55 PM 48.2 °F - 30.2 °F 50% 30.16 in 10.0 mi NW 8.1 mph 16.1 mph N/A   Overcast
1:15 PM 48.2 °F - 28.4 °F 46% 30.16 in 10.0 mi NNW 10.4 mph 16.1 mph N/A   Overcast
1:35 PM 48.2 °F - 30.2 °F 50% 30.16 in 10.0 mi NNW 9.2 mph 16.1 mph N/A   Overcast
1:55 PM 48.2 °F - 30.2 °F 50% 30.16 in 10.0 mi NW 10.4 mph - N/A   Overcast
2:15 PM 46.4 °F 42.9 °F 28.4 °F 50% 30.16 in 10.0 mi WNW 6.9 mph - N/A   Mostly Cloudy
2:35 PM 48.2 °F - 30.2 °F 50% 30.16 in 10.0 mi WNW 5.8 mph - N/A   Scattered Clouds
2:55 PM 48.2 °F - 30.2 °F 50% 30.15 in 10.0 mi WNW 9.2 mph - N/A   Scattered Clouds
3:15 PM 48.2 °F - 30.2 °F 50% 30.15 in 10.0 mi NNW 5.8 mph - N/A   Partly Cloudy
3:35 PM 48.2 °F - 30.2 °F 50% 30.15 in 10.0 mi West 9.2 mph - N/A   Partly Cloudy
3:55 PM 48.2 °F - 30.2 °F 50% 30.16 in 10.0 mi NW 9.2 mph - N/A   Partly Cloudy
4:15 PM 48.2 °F - 30.2 °F 50% 30.15 in 10.0 mi NW 9.2 mph - N/A   Clear
4:35 PM 48.2 °F - 30.2 °F 50% 30.15 in 10.0 mi NW 6.9 mph - N/A   Clear
4:55 PM 48.2 °F - 30.2 °F 50% 30.15 in 10.0 mi NNW 5.8 mph - N/A   Clear
5:15 PM 48.2 °F - 30.2 °F 50% 30.15 in 10.0 mi NW 6.9 mph - N/A   Clear
5:35 PM 46.4 °F 44.3 °F 30.2 °F 53% 30.15 in 10.0 mi NNW 4.6 mph - N/A   Clear
5:55 PM 44.6 °F 43.1 °F 30.2 °F 57% 30.15 in 9.0 mi North 3.5 mph - N/A   Clear
6:15 PM 42.8 °F 41.1 °F 28.4 °F 57% 30.16 in 7.0 mi North 3.5 mph - N/A   Clear
6:35 PM 42.8 °F 40.1 °F 28.4 °F 57% 30.16 in 8.0 mi NNE 4.6 mph - N/A   Clear
6:55 PM 37.4 °F - 30.2 °F 75% 30.16 in 9.0 mi Calm Calm - N/A   Clear
7:15 PM 37.4 °F 34.9 °F 30.2 °F 75% 30.16 in 8.0 mi ENE 3.5 mph - N/A   Clear
7:35 PM 37.4 °F 34.9 °F 28.4 °F 70% 30.16 in 9.0 mi ENE 3.5 mph - N/A   Clear
7:55 PM 35.6 °F 31.7 °F 28.4 °F 75% 30.17 in 7.0 mi East 4.6 mph - N/A   Clear
8:15 PM 35.6 °F 31.7 °F 28.4 °F 75% 30.16 in 7.0 mi East 4.6 mph - N/A   Clear
8:35 PM 35.6 °F 32.8 °F 28.4 °F 75% 30.17 in 9.0 mi East 3.5 mph - N/A   Clear
8:55 PM 35.6 °F - 28.4 °F 75% 30.17 in 7.0 mi Calm Calm - N/A   Clear
9:15 PM 33.8 °F - 28.4 °F 81% 30.17 in 10.0 mi Calm Calm - N/A   Clear
9:35 PM 33.8 °F - 28.4 °F 81% 30.16 in 9.0 mi Calm Calm - N/A   Clear
9:55 PM 33.8 °F - 28.4 °F 81% 30.17 in 8.0 mi Calm Calm - N/A   Clear
10:15 PM 33.8 °F 30.8 °F 28.4 °F 81% 30.16 in 10.0 mi SSE 3.5 mph - N/A   Clear
10:35 PM 33.8 °F - 28.4 °F 81% 30.16 in 10.0 mi Calm Calm - N/A   Clear
10:55 PM 32.0 °F - 26.6 °F 80% 30.17 in 10.0 mi Calm Calm - N/A   Clear
11:15 PM 33.8 °F - 26.6 °F 75% 30.17 in 10.0 mi Calm Calm - N/A   Clear
11:35 PM 30.2 °F - 26.6 °F 86% 30.17 in 10.0 mi Calm Calm - N/A   Clear
11:55 PM 30.2 °F - 26.6 °F 86% 30.16 in 9.0 mi Calm Calm - N/A   Clear